DELTA 1 DEB, 7155

Orbit data source: Space-Track

DELTA 1 DEB, 7155 is space debris in SSO originally from a launch on Tue, 06 Nov 1973 UTC launched from the Air Force Western Test Range (AFWTR). Debris objects in space refer to the collection of defunct objects orbiting the Earth. Examples of debris include non-operational satellites, rocket bodies, and fragments generated from explosions, collisions, or faulty payload assembly.

Loading next visibility...
Identifier
7155, 1973-086DU
Orbit
SSO
Country
Flag of USUS
Related business
Manufacturer
Unknown
Mission
Spacecraft
Bus & Motor
Unknown
Mass
Unknown
Launch date (UTC)
1973-11-06 (52 years ago)
Launch vehicle
Unknown
Launch site
Air Force Western Test Range (AFWTR)
Object type
Payload
Rocket body
Debris
Shape & HBR
Unknown shape, 0.1 m
Radar Cross Section
Small (<0.1 m²)

Expand to show TLE details & history
Last TLE update: 18 hours ago

TLE from 18 hours ago
0 DELTA 1 DEB
1 07155U 73086DU  25292.28394110  .00000055  00000-0  74365-3 0  9998
2 07155 102.3713 196.0175 0121860 239.7562 245.8107 12.40288512346001
Epoch: 2025-10-19T06:48Z
TLE epoch observation values (Epoch: 2025-10-19T06:48:52.511Z)
Latitude
53.88861°
Longitude
-96.79434°
Altitude
1,554.329 km
Speed
7.077 km/s
True Right ascension
02h 13m 42s
True Declination
53° 44' 28"
Sunlit
Object was in full shadow at epoch
Visualization orbit readout
Latitude
Unknown
Longitude
Unknown
Altitude
Unknown
Speed
Unknown
Apparent Right ascension
Unknown
Apparent Declination
Unknown
Sunlit
N/A
Visualization observer readout
Local Sidereal Time
20:05:37
Azimuth
Unknown
Elevation
Unknown
Doppler factor
Unknown
Orbital elements
Apogee altitude
1,599.016 km
Perigee altitude
1,406.937 km
Semi-major axis
7,881.114 km
Eccentricity
0.01219
Inclination
102.3713°
RAAN
196.0175°
Arg. of periapsis
239.7562°
True anomaly
244.5449°
Mean anomaly
245.8107°
Eccentric anomaly
245.177°
Mean motion
3.10214 °/min
Orbital period
116.05 mins
BSTAR
0.00074365
Loading maneuver chart data...
Computing Atmospheric mass density...
Loading historical data...
Loading historical data...
Loading historical data...
Loading historical data...
Loading historical data...
Loading historical data...
Loading historical data...

Documentation

Showing up to 5 results
|